Weather History for New York, NY

Change the Weather History Date:

Friday, May 10, 2013

  Actual Average Record
Temperature  
Mean Temperature 71 °F 61 °F  
Max Temperature 80 °F 69 °F 91 °F (1970)
Min Temperature 61 °F 52 °F 38 °F (1966)
Degree Days  
Heating Degree Days 0 5  
Month to date heating degree days 57 65  
Since 1 July heating degree days 4366 4579  
Cooling Degree Days 6 1  
Month to date cooling degree days 6 10  
Year to date cooling degree days 6 18  
Growing Degree Days 20 (Base 50)    
Moisture  
Dew Point 53 °F    
Average Humidity 57    
Maximum Humidity 78    
Minimum Humidity 36    
Precipitation  
Precipitation 0.00 in 0.11 in 1.44 in (1989)
Month to date precipitation 2.66 1.14  
Year to date precipitation 12.08 15.04  
Snow  
Snow 0.00 in 0.00 in - ()
Month to date snowfall 0.0 0.0  
Since 1 July snowfall 22.2 26.9  
Snow Depth 0.00 in    
Sea Level Pressure  
Sea Level Pressure 29.95 in    
Wind  
Wind Speed 7 mph (SSW)    
Max Wind Speed 18 mph    
Max Gust Speed 24 mph    
Visibility 10 miles    
Events      
T = Trace of Precipitation, MM = Missing Value Source: NWS Daily Summary

Daily Weather History Graph

Daily Weather History Graph

Search for Another Location

Airport:

Trip Planner

Search our weather history database for the weather conditions in past years. The results will help you decide how hot, cold, wet, or windy it might be!

Date:

Astronomy

May. 10, 2013 Rise Set
Actual Time 5:43 AM EDT 8:01 PM EDT
Civil Twilight 5:12 AM EDT 8:32 PM EDT
Nautical Twilight 4:34 AM EDT 9:09 PM EDT
Astronomical Twilight 3:53 AM EDT 9:51 PM EDT
Moon 6:05 AM EDT (5/10) 8:48 PM EDT (5/10)
Length of Visible Light 15h 19m
Length of Day
14h 18m
New Moon, 0% of the Moon is Illuminated
May 10
New Moon
May 18
First Quarter
May 25
Full
May 31
Last Quarter
Jun 8
New

Hourly Weather History & Observations

Time (EDT) Temp. Dew Point Humidity Pressure Visibility Wind Dir Wind Speed Gust Speed Precip Events Conditions
12:51 AM 62.1 °F 53.1 °F 72% 29.94 in 9.0 mi SW 4.6 mph - N/A   Scattered Clouds
1:51 AM 62.1 °F 53.1 °F 72% 29.93 in 9.0 mi SW 3.5 mph - N/A   Partly Cloudy
2:51 AM 62.1 °F 53.1 °F 72% 29.94 in 10.0 mi Calm Calm - N/A   Partly Cloudy
3:51 AM 63.0 °F 53.1 °F 70% 29.94 in 10.0 mi West 4.6 mph - N/A   Clear
4:51 AM 61.0 °F 53.1 °F 75% 29.95 in 10.0 mi Calm Calm - N/A   Clear
5:51 AM 61.0 °F 53.1 °F 75% 29.97 in 10.0 mi West 3.5 mph - N/A   Clear
6:51 AM 62.1 °F 53.1 °F 72% 29.98 in 10.0 mi Calm Calm - N/A   Partly Cloudy
7:51 AM 64.0 °F 54.0 °F 70% 29.99 in 10.0 mi WNW 4.6 mph - N/A   Partly Cloudy
8:51 AM 64.9 °F 54.0 °F 68% 29.99 in 10.0 mi NW 6.9 mph - N/A   Partly Cloudy
9:51 AM 69.1 °F 54.0 °F 58% 29.99 in 10.0 mi West 4.6 mph - N/A   Mostly Cloudy
10:51 AM 73.0 °F 53.1 °F 49% 29.98 in 10.0 mi Calm Calm - N/A   Mostly Cloudy
11:51 AM 73.9 °F 51.1 °F 45% 29.97 in 10.0 mi North 3.5 mph - N/A   Mostly Cloudy
12:51 PM 75.9 °F 50.0 °F 40% 29.96 in 10.0 mi Variable 3.5 mph - N/A   Mostly Cloudy
1:51 PM 78.1 °F 51.1 °F 39% 29.95 in 10.0 mi Variable 5.8 mph - N/A   Mostly Cloudy
2:51 PM 80.1 °F 52.0 °F 38% 29.95 in 10.0 mi SW 11.5 mph - N/A   Scattered Clouds
3:14 PM 78.8 °F 53.6 °F 42% 29.94 in 10.0 mi South 15.0 mph 20.7 mph N/A   Mostly Cloudy
3:51 PM 75.0 °F 53.1 °F 46% 29.94 in 10.0 mi South 17.3 mph - N/A   Mostly Cloudy
4:51 PM 73.0 °F 53.1 °F 49% 29.94 in 10.0 mi South 18.4 mph 23.0 mph N/A   Mostly Cloudy
5:51 PM 70.0 °F 54.0 °F 57% 29.94 in 10.0 mi South 12.7 mph - N/A   Mostly Cloudy
6:51 PM 66.9 °F 54.0 °F 63% 29.93 in 10.0 mi South 17.3 mph 23.0 mph N/A   Overcast
7:51 PM 66.0 °F 54.0 °F 65% 29.93 in 10.0 mi South 12.7 mph 19.6 mph N/A   Overcast
8:51 PM 64.9 °F 54.0 °F 68% 29.91 in 10.0 mi South 8.1 mph - N/A   Overcast
9:51 PM 64.0 °F 55.0 °F 73% 29.93 in 10.0 mi South 8.1 mph - N/A   Mostly Cloudy
10:51 PM 64.0 °F 55.0 °F 73% 29.91 in 10.0 mi Variable 4.6 mph - N/A   Mostly Cloudy
11:51 PM 64.0 °F 55.0 °F 73% 29.88 in 10.0 mi South 4.6 mph - N/A   Scattered Clouds